EW8383 Weather Reports


time (UTC)temp
F
wind
direction
speed
knots
gust
knots
rain 1hr
in
rain 24hr
in
rain mn
in
humidity
%
barometer
mb
20260505011511 66 43 13.0 0.0 0.00 0.00 0.00 34 999.9
20260505010010 66 26 14.8 0.0 0.00 0.00 0.00 34 999.8
20260505004515 67 48 11.3 0.0 0.00 0.00 0.00 35 1000.4
20260505003009 68 29 13.0 0.0 0.00 0.00 0.00 33 1000.5
20260505001508 70 5 7.8 0.0 0.00 0.00 0.00 29 1000.3
20260505000008 71 46 12.2 0.0 0.00 0.00 0.00 29 1000.0
20260504234510 72 32 13.0 0.0 0.00 0.00 0.00 29 999.2
20260504233007 73 42 13.9 0.0 0.00 0.00 0.00 29 998.5
20260504231506 74 52 13.9 0.0 0.00 0.00 0.00 28 997.9
20260504230006 74 43 15.6 0.0 0.00 0.00 0.00 27 997.4
20260504224507 76 61 11.3 0.0 0.00 0.00 0.00 26 997.2
20260504223005 79 355 7.8 0.0 0.00 0.00 0.00 20 996.9
20260504221503 79 346 7.0 0.0 0.00 0.00 0.00 15 996.8
20260504214502 80 345 6.1 0.0 0.00 0.00 0.00 15 997.0
20260504213002 80 36 4.3 0.0 0.00 0.00 0.00 15 997.1
20260504211558 81 9 4.3 0.0 0.00 0.00 0.00 15 997.4
20260504210104 81 351 4.3 0.0 0.00 0.00 0.00 15 997.5
20260504204602 80 324 6.1 0.0 0.00 0.00 0.00 15 997.9
20260504203056 79 42 3.5 0.0 0.00 0.00 0.00 16 998.0
20260504201548 79 174 4.3 0.0 0.00 0.00 0.00 14 998.2
20260504200047 79 132 3.5 0.0 0.00 0.00 0.00 15 998.4
20260504194547 78 211 7.0 0.0 0.00 0.00 0.00 15 998.5
20260504193058 78 240 7.0 0.0 0.00 0.00 0.00 15 998.6
20260504191543 80 267 2.6 0.0 0.00 0.00 0.00 15 998.8
20260504190042 78 63 6.1 0.0 0.00 0.00 0.00 16 999.1
20260504184539 78 25 5.2 0.0 0.00 0.00 0.00 17 999.2
20260504183041 77 94 4.3 0.0 0.00 0.00 0.00 17 999.4
20260504181535 77 82 4.3 0.0 0.00 0.00 0.00 18 999.7
20260504180030 75 61 4.3 0.0 0.00 0.00 0.00 20 999.8
20260504174527 75 71 6.1 0.0 0.00 0.00 0.00 20 1000.3
20260504173025 75 42 5.2 0.0 0.00 0.00 0.00 20 1000.5
20260504171523 74 59 7.0 0.0 0.00 0.00 0.00 18 1000.8
20260504081505 48 209 0.9 0.0 0.00 0.00 0.00 57 1001.8
20260504044539 56 110 8.7 0.0 0.00 0.00 0.00 43 1003.3
20260504043043 57 113 7.8 0.0 0.00 0.00 0.00 41 1003.6
20260504041536 58 115 6.1 0.0 0.00 0.00 0.00 40 1003.7
20260504040035 58 94 3.5 0.0 0.00 0.00 0.00 39 1003.8
20260504034539 59 74 1.7 0.0 0.00 0.00 0.00 38 1003.8
20260504033039 60 72 0.9 0.0 0.00 0.00 0.00 37 1004.0
20260504031534 61 77 3.5 0.0 0.00 0.00 0.00 35 1003.9
20260504030034 62 71 3.5 0.0 0.00 0.00 0.00 34 1003.7
20260504024533 63 66 2.6 0.0 0.00 0.00 0.00 33 1003.7
20260504023033 64 70 2.6 0.0 0.00 0.00 0.00 33 1003.7
20260504020040 68 58 4.3 0.0 0.00 0.00 0.00 29 1003.6
20260504014537 69 59 4.3 0.0 0.00 0.00 0.00 28 1003.5
20260504013031 71 41 4.3 0.0 0.00 0.00 0.00 26 1003.4